Location: Chimay
(50.0486°N, 4.3171°E)
Time: 03:33:59
(UTC+00:00)

SL-4 R/B - Pass Details

Date: 08 August 2020
Orbit: 428 x 665 km, 51.6° (Epoch: 19 September)

Event Time Altitude Azimuth Distance (km) Brightness Sun altitude
Rises 22:21:18 0° 259° (WSW) 2,602 5.6 -21.4°
Reaches altitude 10° 22:23:34 10° 260° (W) 1,679 4.6 -21.6°
Enters shadow 22:27:13 77° 317° (NW) 483 1.7 -21.8°
